Terminal Aerodrome Forecast
Issued by NWS

Home | Current Version | Previous Version | Graphics & Text | Print | Product List | Glossary On
Versions: 1 2 3 4 5 6 7 8 9 10 11 12 13 14 15 16 17
000
FTUS43 KTOP 290922 AAA
TAFFOE
TAF AMD
KFOE 290922Z 2909/3006 02014G20KT 5SM BR VCSH OVC004
     FM291100 03017G26KT 3SM RA BR OVC005
     FM291900 03015G22KT 5SM -RA BR OVC006=

USA.gov is the U.S. government's official web portal to all federal, state and local government web resources and services.